[Date Prev][Date Next][Thread Prev][Thread Next] - [Date Index][Thread Index][Author Index]
2 Line ISS Keps 1-1
- Subject: [sarex] 2 Line ISS Keps 1-1
- From: "Dave Larsen PhD" <doc@xxxxxxxxxxx>
- Date: Tue, 1 Jan 2002 05:36:15 -0800
ISS
1 25544U 98067A 02001.54337506 .00066205 00000-0 75286-3 0 9097
2 25544 51.6375 170.5571 0002874 79.9843 356.8447 15.61672606178032
----
Via the sarex mailing list at AMSAT.ORG courtesy of AMSAT-NA.
To unsubscribe, send "unsubscribe sarex" to Majordomo@amsat.org
AMSAT Home